• In Czech Republic
  • List of Countries
  • For 7 days
  • Water Temperature
  • Satellite Maps
  • Weather Map
  • Weather Widgets
  • user-avatar
    Login

    Hourly Weather Red Deer

    Today, 20 June, Wednesday

    Time Temperature Precipitation Wind Pressure Humidity
    00:00 +13°C° 0 mm 3 mps 686 mmHg 75%
    01:00 +12°C° 0 mm 3 mps 686 mmHg 77%
    02:00 +13°C° 0 mm 2 mps 686 mmHg 77%
    03:00 +13°C° 0 mm 2 mps 686 mmHg 77%
    04:00 +12°C° 0 mm 2 mps 686 mmHg 77%
    05:00 +13°C° 0 mm 3 mps 686 mmHg 74%
    06:00 +16°C° 0 mm 3 mps 686 mmHg 71%
    07:00 +18°C° 0 mm 3 mps 686 mmHg 68%
    08:00 +20°C° 0 mm 4 mps 686 mmHg 66%
    09:00 +21°C° 0 mm 4 mps 686 mmHg 63%
    10:00 +22°C° 0 mm 5 mps 686 mmHg 60%
    11:00 +23°C° 0 mm 5 mps 686 mmHg 58%
    12:00 +25°C° 0 mm 5 mps 686 mmHg 57%
    13:00 +25°C° 0 mm 5 mps 686 mmHg 56%
    14:00 +25°C° 0 mm 5 mps 685 mmHg 57%
    15:00 +25°C° 0 mm 4 mps 685 mmHg 58%
    16:00 +25°C° 0 mm 4 mps 685 mmHg 59%
    17:00 +23°C° 0 mm 4 mps 684 mmHg 65%
    18:00 +22°C° 0 mm 3 mps 684 mmHg 70%
    19:00 +20°C° 0 mm 3 mps 684 mmHg 76%
    20:00 +19°C° 0 mm 3 mps 683 mmHg 78%
    21:00 +18°C° 0 mm 3 mps 683 mmHg 80%
    22:00 +16°C° 0 mm 3 mps 683 mmHg 82%
    23:00 +16°C° 0 mm 3 mps 682 mmHg 83%

    Tomorrow, 21 June, Thursday

    Time Temperature Precipitation Wind Pressure Humidity
    00:00 +14°C° 0 mm 3 mps 682 mmHg 84%
    01:00 +14°C° 0 mm 3 mps 682 mmHg 85%
    02:00 +13°C° 0 mm 3 mps 682 mmHg 86%
    03:00 +14°C° 0 mm 2 mps 682 mmHg 87%
    04:00 +14°C° 0 mm 2 mps 681 mmHg 88%
    05:00 +16°C° 0 mm 3 mps 682 mmHg 84%
    06:00 +17°C° 0 mm 3 mps 682 mmHg 80%
    07:00 +19°C° 0 mm 3 mps 682 mmHg 76%
    08:00 +21°C° 0 mm 4 mps 682 mmHg 71%
    09:00 +22°C° 0 mm 4 mps 682 mmHg 67%
    10:00 +25°C° 0 mm 5 mps 682 mmHg 62%
    11:00 +25°C° 0.1 mm 5 mps 682 mmHg 61%
    12:00 +26°C° 0.1 mm 5 mps 682 mmHg 59%
    13:00 +26°C° 0.1 mm 4 mps 682 mmHg 58%
    14:00 +26°C° 0.1 mm 4 mps 682 mmHg 58%
    15:00 +26°C° 0.1 mm 4 mps 682 mmHg 58%
    16:00 +26°C° 0.1 mm 4 mps 681 mmHg 59%
    17:00 +25°C° 0.3 mm 3 mps 681 mmHg 65%
    18:00 +23°C° 0.3 mm 2 mps 681 mmHg 70%
    19:00 +21°C° 0.3 mm 2 mps 680 mmHg 76%
    20:00 +20°C° 0.1 mm 2 mps 680 mmHg 78%
    21:00 +20°C° 0.1 mm 1 mps 680 mmHg 79%
    22:00 +18°C° 0.1 mm 1 mps 680 mmHg 81%
    23:00 +18°C° 0.3 mm 1 mps 680 mmHg 82%

    Day after tomorrow, 22 June, Friday

    Time Temperature Precipitation Wind Pressure Humidity
    00:00 +16°C° 0.3 mm 1 mps 680 mmHg 83%
    01:00 +16°C° 0.3 mm 1 mps 679 mmHg 84%
    02:00 +15°C° 0.5 mm 1 mps 679 mmHg 87%
    03:00 +15°C° 0.5 mm 2 mps 679 mmHg 90%
    04:00 +14°C° 0.5 mm 2 mps 679 mmHg 92%
    05:00 +16°C° 0.4 mm 3 mps 680 mmHg 90%
    06:00 +17°C° 0.4 mm 3 mps 680 mmHg 87%
    07:00 +18°C° 0.4 mm 3 mps 680 mmHg 85%
    08:00 +20°C° 0.5 mm 3 mps 680 mmHg 80%
    09:00 +21°C° 0.5 mm 3 mps 680 mmHg 76%
    10:00 +22°C° 0.5 mm 3 mps 680 mmHg 72%
    11:00 +22°C° 1 mm 3 mps 680 mmHg 71%
    12:00 +24°C° 1 mm 3 mps 680 mmHg 70%
    13:00 +24°C° 1 mm 2 mps 680 mmHg 69%
    14:00 +23°C° 1.3 mm 2 mps 680 mmHg 73%
    15:00 +23°C° 1.3 mm 2 mps 680 mmHg 76%
    16:00 +21°C° 1.3 mm 2 mps 679 mmHg 80%
    17:00 +21°C° 0.5 mm 2 mps 679 mmHg 82%
    18:00 +20°C° 0.5 mm 2 mps 679 mmHg 84%
    19:00 +20°C° 0.5 mm 1 mps 679 mmHg 87%
    20:00 +19°C° 0.2 mm 1 mps 679 mmHg 87%
    21:00 +17°C° 0.2 mm 2 mps 678 mmHg 88%
    22:00 +16°C° 0.2 mm 2 mps 678 mmHg 88%
    23:00 +16°C° 0.2 mm 2 mps 678 mmHg 89%

    23 June, Saturday

    Time Temperature Precipitation Wind Pressure Humidity
    00:00 +16°C° 0.2 mm 2 mps 678 mmHg 90%
    01:00 +15°C° 0.2 mm 2 mps 678 mmHg 90%
    02:00 +15°C° 0.2 mm 2 mps 678 mmHg 91%
    03:00 +14°C° 0.2 mm 3 mps 678 mmHg 92%
    04:00 +13°C° 0.2 mm 3 mps 678 mmHg 93%
    05:00 +16°C° 0.3 mm 3 mps 679 mmHg 90%
    06:00 +17°C° 0.3 mm 4 mps 680 mmHg 88%
    07:00 +19°C° 0.3 mm 4 mps 680 mmHg 85%
    08:00 +20°C° 0.9 mm 4 mps 680 mmHg 81%
    09:00 +21°C° 0.9 mm 4 mps 681 mmHg 76%
    10:00 +22°C° 0.9 mm 4 mps 681 mmHg 72%
    11:00 +22°C° 0.8 mm 4 mps 681 mmHg 72%
    12:00 +22°C° 0.8 mm 4 mps 681 mmHg 72%
    13:00 +23°C° 0.8 mm 4 mps 681 mmHg 72%
    14:00 +22°C° 1.1 mm 4 mps 682 mmHg 75%
    15:00 +22°C° 1.1 mm 3 mps 682 mmHg 77%
    16:00 +22°C° 1.1 mm 3 mps 682 mmHg 80%
    17:00 +21°C° 0.5 mm 3 mps 682 mmHg 83%
    18:00 +20°C° 0.5 mm 2 mps 682 mmHg 85%
    19:00 +20°C° 0.5 mm 2 mps 682 mmHg 88%
    20:00 +19°C° 0.7 mm 2 mps 682 mmHg 89%
    21:00 +18°C° 0.7 mm 2 mps 682 mmHg 91%
    22:00 +17°C° 0.7 mm 3 mps 683 mmHg 92%
    23:00 +16°C° 0 mm 3 mps 683 mmHg 92%

    24 June, Sunday

    Time Temperature Precipitation Wind Pressure Humidity
    00:00 +16°C° 0 mm 3 mps 683 mmHg 93%
    01:00 +15°C° 0 mm 2 mps 682 mmHg 93%
    02:00 +15°C° 0 mm 2 mps 683 mmHg 93%
    03:00 +15°C° 0 mm 2 mps 683 mmHg 92%
    04:00 +15°C° 0 mm 2 mps 683 mmHg 92%
    05:00 +16°C° 0 mm 2 mps 683 mmHg 88%
    06:00 +18°C° 0 mm 2 mps 684 mmHg 84%
    07:00 +20°C° 0 mm 2 mps 684 mmHg 80%
    08:00 +22°C° 0 mm 1 mps 684 mmHg 75%
    09:00 +24°C° 0 mm 1 mps 684 mmHg 69%
    10:00 +25°C° 0 mm 1 mps 684 mmHg 63%
    11:00 +26°C° 0 mm 1 mps 684 mmHg 61%
    12:00 +26°C° 0 mm 1 mps 684 mmHg 58%
    13:00 +27°C° 0 mm 1 mps 684 mmHg 55%
    14:00 +27°C° 0 mm 1 mps 683 mmHg 56%
    15:00 +27°C° 0 mm 1 mps 683 mmHg 57%
    16:00 +27°C° 0 mm 2 mps 683 mmHg 58%
    17:00 +26°C° 0 mm 2 mps 682 mmHg 64%
    18:00 +24°C° 0 mm 2 mps 682 mmHg 70%
    19:00 +23°C° 0 mm 2 mps 682 mmHg 76%
    20:00 +21°C° 0 mm 3 mps 681 mmHg 76%
    21:00 +20°C° 0 mm 3 mps 681 mmHg 77%
    22:00 +18°C° 0 mm 3 mps 680 mmHg 77%
    23:00 +18°C° 0 mm 3 mps 680 mmHg 78%

    25 June, Monday

    Time Temperature Precipitation Wind Pressure Humidity
    00:00 +17°C° 0 mm 3 mps 679 mmHg 79%
    01:00 +17°C° 0 mm 3 mps 679 mmHg 80%
    02:00 +16°C° 0 mm 3 mps 678 mmHg 82%
    03:00 +16°C° 0 mm 3 mps 678 mmHg 83%
    04:00 +16°C° 0 mm 3 mps 677 mmHg 85%
    05:00 +17°C° 0 mm 3 mps 677 mmHg 81%
    06:00 +19°C° 0 mm 3 mps 677 mmHg 78%
    07:00 +21°C° 0 mm 3 mps 677 mmHg 75%
    08:00 +23°C° 0.1 mm 4 mps 677 mmHg 71%
    09:00 +25°C° 0.1 mm 4 mps 678 mmHg 67%
    10:00 +27°C° 0.1 mm 4 mps 678 mmHg 63%
    11:00 +26°C° 0.5 mm 5 mps 678 mmHg 66%
    12:00 +23°C° 0.5 mm 7 mps 678 mmHg 69%
    13:00 +22°C° 0.5 mm 8 mps 678 mmHg 73%
    14:00 +22°C° 0 mm 7 mps 678 mmHg 72%
    15:00 +21°C° 0 mm 6 mps 678 mmHg 72%
    16:00 +21°C° 0 mm 5 mps 678 mmHg 71%
    17:00 +20°C° 0.3 mm 4 mps 678 mmHg 77%
    18:00 +18°C° 0.3 mm 4 mps 678 mmHg 82%
    19:00 +17°C° 0.3 mm 3 mps 678 mmHg 88%
    20:00 +16°C° 1.2 mm 3 mps 679 mmHg 90%
    21:00 +14°C° 1.2 mm 3 mps 679 mmHg 92%
    22:00 +13°C° 1.2 mm 3 mps 679 mmHg 94%
    23:00 +13°C° 0.6 mm 3 mps 679 mmHg 93%
    Show more